TimeCST,TemperatureF,Dew PointF,Humidity,Sea Level PressureIn,VisibilityMPH,Wind Direction,Wind SpeedMPH,Gust SpeedMPH,PrecipitationIn,Events,Conditions,WindDirDegrees,DateUTC
12:53 AM,52.0,30.0,43,30.16,10.0,East,9.2,-,0.00,Rain,Light Rain,100,2013-02-20 06:53:00
1:53 AM,48.9,35.1,59,30.14,10.0,East,9.2,-,0.02,Rain,Light Rain,90,2013-02-20 07:53:00
2:53 AM,46.0,37.9,73,30.13,10.0,ENE,8.1,-,0.04,Rain,Light Rain,60,2013-02-20 08:53:00
3:53 AM,46.0,39.9,79,30.16,10.0,NNW,8.1,-,0.01,Rain,Light Rain,340,2013-02-20 09:53:00
4:53 AM,46.0,39.9,79,30.09,10.0,ENE,10.4,-,0.01,Rain,Light Rain,70,2013-02-20 10:53:00
5:53 AM,45.0,37.9,76,30.07,10.0,East,15.0,19.6,0.00,Rain,Light Rain,100,2013-02-20 11:53:00
6:01 AM,45.0,37.9,76,30.06,10.0,ESE,13.8,23.0,0.02,Rain-Thunderstorm,Rain,110,2013-02-20 12:01:00
6:16 AM,45.0,37.0,74,30.07,10.0,East,10.4,20.7,0.03,Rain,Light Rain,90,2013-02-20 12:16:00
6:53 AM,44.1,37.9,79,30.06,10.0,East,10.4,-,0.03,Rain,Light Rain,90,2013-02-20 12:53:00
7:53 AM,44.1,37.0,76,30.16,10.0,NNE,12.7,-,0.00,Rain,Light Rain,20,2013-02-20 13:53:00
8:53 AM,44.1,37.9,79,30.12,10.0,ENE,13.8,-,0.00,,Overcast,70,2013-02-20 14:53:00
9:53 AM,46.9,37.9,71,30.10,10.0,East,15.0,-,0.00,,Mostly Cloudy,90,2013-02-20 15:53:00
10:53 AM,46.0,37.9,73,30.08,10.0,East,15.0,25.3,0.00,Rain,Light Rain,100,2013-02-20 16:53:00
11:53 AM,45.0,37.9,76,30.06,10.0,East,15.0,-,0.01,Rain,Light Rain,100,2013-02-20 17:53:00
12:53 PM,46.0,37.0,71,30.02,10.0,ESE,19.6,24.2,0.02,,Overcast,110,2013-02-20 18:53:00
1:53 PM,45.0,35.1,68,30.00,10.0,East,16.1,-,0.00,,Overcast,100,2013-02-20 19:53:00
2:53 PM,46.4,33.8,62,29.98,10.0,ESE,13.8,-,N/A,,Overcast,110,2013-02-20 20:53:00
3:53 PM,44.6,33.8,66,29.95,10.0,East,15.0,-,N/A,,Overcast,90,2013-02-20 21:53:00
4:53 PM,45.0,34.0,65,29.91,10.0,East,15.0,23.0,N/A,,Overcast,90,2013-02-20 22:53:00
5:53 PM,44.1,36.0,73,29.92,10.0,East,12.7,-,N/A,,Overcast,80,2013-02-20 23:53:00
6:53 PM,42.8,35.6,76,29.92,10.0,ENE,13.8,-,N/A,,Overcast,70,2013-02-21 00:53:00
7:53 PM,42.1,35.1,76,29.91,10.0,East,13.8,-,N/A,,Overcast,80,2013-02-21 01:53:00
8:53 PM,42.1,34.0,73,29.87,10.0,East,11.5,-,N/A,,Overcast,90,2013-02-21 02:53:00
9:53 PM,42.8,33.8,70,29.84,10.0,East,13.8,-,N/A,,Overcast,90,2013-02-21 03:53:00
10:53 PM,43.0,34.0,71,29.82,10.0,East,11.5,-,N/A,,Overcast,90,2013-02-21 04:53:00
11:53 PM,43.0,33.1,68,29.78,10.0,ESE,18.4,24.2,N/A,,Overcast,110,2013-02-21 05:53:00